User: anonymous   Login
Location: Caltech
(34.1382°N, 118.1253°W)
Time: 21:15:15
(UTC-07:00)
Language:

Meteor 1-11 Rocket - Orbit

View from above orbital plane
View from above orbital plane
View from above satellite
View from above satellite

Ground track
Ground track

The orbit data is extracted from the following two-line orbital elements,

1 05918U 72022B   15142.50075621  .00000198  00000-0  11248-3 0  9992
2 05918 081.2357 337.8471 0057989 293.3868 066.1207 14.05768441211670
Epoch (UTC): 22 May 2015 12:01:05
Eccentricity: 0.0057989
inclination: 81.2357°
perigee height: 832 km
apogee height: 916 km
right ascension of ascending node: 337.8471°
argument of perigee: 293.3868°
revolutions per day: 14.05768441
mean anomaly at epoch: 66.1207°
orbit number at epoch: 21167

The dashed part of the orbit path shows where the satellite is in the earth's shadow,  

DLR